Regional Weather Roundup
Issued by NWS

Home | Current Version | Previous Version | Graphics & Text | Print | Product List | Glossary On
Versions: 1 2 3 4 5 6 7 8 9 10 11 12 13 14 15 16 17 18 19 20 21 22 23 24 25 26 27 28 29 30 31 32 33 34 35 36 37 38 39 40 41 42 43 44 45 46 47 48 49 50
741
ASUS45 KCYS 100910
RWRWY

WYOMING REGIONAL WEATHER ROUNDUP
NATIONAL WEATHER SERVICE CHEYENNE WY
200 AM MST SUN DEC 10 2017

NOTE:  "FAIR" INDICATES FEW OR NO CLOUDS BELOW 12,000 FEET
WITH NO SIGNIFICANT WEATHER AND/OR OBSTRUCTIONS TO VISIBILITY.

WYZ001-101000-
YELLOWSTONE NATIONAL PARK

CITY           SKY/WX    TMP DP  RH WIND       PRES   REMARKS
LK YELLOWSTONE   N/A      2  -1  88 CALM      30.61S
W YELLOWSTONE  NOT AVBL

$$
WYZ002>013-054>058-071-098>099-101000-
NORTHERN WYOMING

CITY           SKY/WX    TMP DP  RH WIND       PRES   REMARKS
JACKSON        FAIR       7   4  87 NE3       30.64R
CODY           FAIR      33   4  29 CALM      30.41S
GREYBULL       FAIR      13   9  84 CALM      30.45S
WORLAND        FAIR      14  11  87 CALM      30.43S
SHERIDAN       FAIR      30  11  45 S6        30.33F WCI  24
BUFFALO        FAIR      35   3  26 SW9       30.36S WCI  28
GILLETTE       FAIR      36  12  37 W16       30.32F WCI  26
HULETT         FAIR      34  12  40 S10       30.30F WCI  26
NEWCASTLE      FAIR      30  10  43 N12       30.33S WCI  21

$$
WYZ014>020-022>026-101>103-101000-
CENTRAL WYOMING

CITY           SKY/WX    TMP DP  RH WIND       PRES   REMARKS
BIG PINEY      FAIR      24   3  40 N14       30.53S WCI  12
PINEDALE       FAIR      23   3  42 NW15      30.50F WCI  10
DUBOIS         FAIR      36  -6  17 W24G31    30.47S WCI  24
LANDER         FAIR      25  14  63 CALM      30.44S
RIVERTON       FAIR      18  11  74 N3        30.45S
CASPER         FAIR      32  15  49 SW15      30.42S WCI  22
DOUGLAS        FAIR      21  15  78 NW8       30.40S WCI  11

$$
WYZ021-027>030-104>119-101000-
SOUTHERN WYOMING

CITY           SKY/WX    TMP DP  RH WIND       PRES   REMARKS
EVANSTON       FAIR      25   9  50 S7        30.57S WCI  17
FORT BRIDGER   FAIR      32   0  24 W14       30.58S WCI  22
ROCK SPRINGS   FAIR      25   8  48 W10       30.53R WCI  15
DIXON          FAIR      20  11  66 E6        30.59R WCI  13
RAWLINS        FAIR      16   8  71 SE5       30.51R WCI   9
SARATOGA       FAIR      18   9  68 CALM      30.52F
LARAMIE        FAIR      16   4  59 SE9       30.45S WCI   4
CHEYENNE       FAIR      37   0  21 W15       30.38S WCI  28
TORRINGTON     FAIR      34  13  41 NW9       30.36S WCI  27
PINE BLUFFS    FAIR      28   1  31 MISG      30.37S

$$




USA.gov is the U.S. government's official web portal to all federal, state and local government web resources and services.